OAS8417 SKCL-SKBO

Flight info

Callsign OAS8417
Flight time 0h 31m
Altitude 21000
Route ULQ1K ULQ W1 TOLIM TOLIM5E
Aircraft E190/M-SDE3GILORVW/S

Departure

Time 2026-05-07 02:11
Airport Alfonso Bonilla Aragon International Airport (SKCL)

Arrival

Time 2026-05-07 02:43
Airport El Dorado International Airport (SKBO)
Time Latitude Longitude Altitude Speed Heading
2026-05-07 01:46 3.53831 -76.38701 3161 ft 0 kts 266°
2026-05-07 02:00 3.53833 -76.38679 3161 ft 3 kts 256°
2026-05-07 02:00 3.53841 -76.38657 3163 ft 3 kts 240°
2026-05-07 02:00 3.53855 -76.38637 3161 ft 3 kts 221°
2026-05-07 02:01 3.53874 -76.38623 3161 ft 3 kts 202°
2026-05-07 02:01 3.53897 -76.38616 3161 ft 3 kts 188°
2026-05-07 02:01 3.53922 -76.38613 3161 ft 3 kts 185°
2026-05-07 02:01 3.53933 -76.38612 3161 ft 0 kts 189°
2026-05-07 02:06 3.53925 -76.38614 3161 ft 3 kts 191°
2026-05-07 02:06 3.53891 -76.38621 3161 ft 7 kts 190°
2026-05-07 02:07 3.53839 -76.38615 3161 ft 9 kts 155°
2026-05-07 02:07 3.53736 -76.38547 3162 ft 9 kts 146°
2026-05-07 02:07 3.53680 -76.38505 3163 ft 11 kts 140°
2026-05-07 02:08 3.53610 -76.38460 3162 ft 11 kts 165°
2026-05-07 02:08 3.53538 -76.38467 3161 ft 10 kts 191°
2026-05-07 02:08 3.53464 -76.38480 3163 ft 12 kts 189°
2026-05-07 02:08 3.53377 -76.38495 3161 ft 14 kts 189°
2026-05-07 02:09 3.53278 -76.38514 3161 ft 15 kts 190°
2026-05-07 02:09 3.53167 -76.38531 3162 ft 17 kts 189°
2026-05-07 02:09 3.53051 -76.38552 3161 ft 17 kts 189°
2026-05-07 02:09 3.52995 -76.38520 3162 ft 8 kts 109°
2026-05-07 02:10 3.52988 -76.38459 3160 ft 10 kts 87°
2026-05-07 02:10 3.53028 -76.38401 3159 ft 12 kts 42°
2026-05-07 02:10 3.53104 -76.38377 3158 ft 13 kts
2026-05-07 02:10 3.53398 -76.38327 3162 ft 79 kts
2026-05-07 02:11 3.54187 -76.38193 3165 ft 147 kts
2026-05-07 02:11 3.55320 -76.37983 3528 ft 175 kts
2026-05-07 02:11 3.56583 -76.37745 4200 ft 198 kts
2026-05-07 02:11 3.57999 -76.37499 5124 ft 213 kts
2026-05-07 02:12 3.59494 -76.37208 6159 ft 222 kts
2026-05-07 02:12 3.61031 -76.36962 7260 ft 225 kts
2026-05-07 02:12 3.62608 -76.36704 8264 ft 233 kts
2026-05-07 02:12 3.64207 -76.36440 9206 ft 243 kts
2026-05-07 02:13 3.65901 -76.35989 9971 ft 259 kts 18°
2026-05-07 02:13 3.67685 -76.35386 10657 ft 285 kts 18°
2026-05-07 02:13 3.69615 -76.34767 11609 ft 299 kts 18°
2026-05-07 02:13 3.71638 -76.34127 12651 ft 309 kts 18°
2026-05-07 02:14 3.73715 -76.33471 13652 ft 322 kts 19°
2026-05-07 02:14 3.75887 -76.32786 14538 ft 333 kts 19°
2026-05-07 02:14 3.78122 -76.32084 15580 ft 340 kts 19°
2026-05-07 02:14 3.80381 -76.31343 16624 ft 343 kts 24°
2026-05-07 02:15 3.82383 -76.30054 17581 ft 346 kts 47°
2026-05-07 02:15 3.83835 -76.28148 18600 ft 346 kts 55°
2026-05-07 02:15 3.85241 -76.26163 19451 ft 352 kts 55°
2026-05-07 02:15 3.86675 -76.24155 20256 ft 358 kts 55°
2026-05-07 02:16 3.88136 -76.22103 20954 ft 368 kts 55°
2026-05-07 02:16 3.89650 -76.19941 21042 ft 392 kts 56°
2026-05-07 02:16 3.91239 -76.17617 21094 ft 416 kts 56°
2026-05-07 02:16 3.92917 -76.15160 21131 ft 438 kts 56°
2026-05-07 02:17 3.94603 -76.12697 21832 ft 296 kts 56°
2026-05-07 02:17 3.95797 -76.10960 20821 ft 316 kts 57°
2026-05-07 02:17 3.97003 -76.09201 20948 ft 296 kts 56°
2026-05-07 02:17 3.98169 -76.07493 20537 ft 297 kts 57°
2026-05-07 02:18 3.99348 -76.05708 20391 ft 322 kts 57°
2026-05-07 02:18 4.00664 -76.03767 20407 ft 351 kts 56°
2026-05-07 02:18 4.02094 -76.01671 20502 ft 377 kts 56°
2026-05-07 02:18 4.03622 -75.99434 20675 ft 397 kts 56°
2026-05-07 02:19 4.05194 -75.97157 21382 ft 405 kts 56°
2026-05-07 02:19 4.06836 -75.94770 21396 ft 427 kts 56°
2026-05-07 02:19 4.08487 -75.92340 21084 ft 416 kts 56°
2026-05-07 02:19 4.09566 -75.90722 20386 ft 422 kts 57°
2026-05-07 02:20 4.11148 -75.88381 20673 ft 393 kts 56°
2026-05-07 02:20 4.12703 -75.86131 21231 ft 398 kts 56°
2026-05-07 02:20 4.14286 -75.83814 21091 ft 401 kts 56°
2026-05-07 02:20 4.15859 -75.81493 21064 ft 402 kts 56°
2026-05-07 02:21 4.17442 -75.79168 21062 ft 405 kts 56°
2026-05-07 02:21 4.19032 -75.76832 21064 ft 406 kts 56°
2026-05-07 02:21 4.20625 -75.74491 21055 ft 407 kts 56°
2026-05-07 02:21 4.22218 -75.72152 21053 ft 406 kts 56°
2026-05-07 02:22 4.23808 -75.69810 21053 ft 407 kts 56°
2026-05-07 02:22 4.25400 -75.67471 21064 ft 407 kts 56°
2026-05-07 02:22 4.26992 -75.65130 21067 ft 407 kts 56°
2026-05-07 02:22 4.28585 -75.62789 21086 ft 407 kts 56°
2026-05-07 02:23 4.30182 -75.60445 21098 ft 406 kts 56°
2026-05-07 02:23 4.31776 -75.58105 21092 ft 407 kts 56°
2026-05-07 02:23 4.33370 -75.55764 21086 ft 407 kts 56°
2026-05-07 02:23 4.34967 -75.53415 21090 ft 408 kts 56°
2026-05-07 02:24 4.36562 -75.51065 21091 ft 408 kts 56°
2026-05-07 02:24 4.38135 -75.48712 21086 ft 400 kts 59°
2026-05-07 02:24 4.39451 -75.46321 21066 ft 384 kts 62°
2026-05-07 02:24 4.40711 -75.44002 21046 ft 376 kts 62°
2026-05-07 02:25 4.41966 -75.41723 21049 ft 371 kts 62°
2026-05-07 02:25 4.43195 -75.39498 21086 ft 370 kts 62°
2026-05-07 02:25 4.44444 -75.37248 21081 ft 369 kts 61°
2026-05-07 02:25 4.45692 -75.35001 21072 ft 368 kts 61°
2026-05-07 02:26 4.46940 -75.32759 21086 ft 368 kts 61°
2026-05-07 02:26 4.48187 -75.30521 21093 ft 368 kts 61°
2026-05-07 02:26 4.49435 -75.28284 21094 ft 368 kts 61°
2026-05-07 02:26 4.50683 -75.26049 21071 ft 368 kts 61°
2026-05-07 02:27 4.51932 -75.23810 21090 ft 367 kts 61°
2026-05-07 02:27 4.53178 -75.21576 21071 ft 368 kts 61°
2026-05-07 02:27 4.54425 -75.19339 21095 ft 368 kts 61°
2026-05-07 02:27 4.55673 -75.17104 21093 ft 367 kts 61°
2026-05-07 02:28 4.56920 -75.14867 21100 ft 368 kts 61°
2026-05-07 02:28 4.58167 -75.12630 21100 ft 367 kts 61°
2026-05-07 02:28 4.59415 -75.10394 21099 ft 367 kts 61°
2026-05-07 02:28 4.60663 -75.08158 21098 ft 367 kts 61°
2026-05-07 02:29 4.61894 -75.05944 21086 ft 357 kts 61°
2026-05-07 02:29 4.63086 -75.03801 21070 ft 348 kts 61°
2026-05-07 02:29 4.64254 -75.01692 21013 ft 346 kts 61°
2026-05-07 02:29 4.65427 -74.99581 20737 ft 346 kts 61°
2026-05-07 02:30 4.66587 -74.97492 20509 ft 341 kts 61°
2026-05-07 02:30 4.67743 -74.95410 20015 ft 343 kts 61°
2026-05-07 02:30 4.68895 -74.93335 19549 ft 339 kts 61°
2026-05-07 02:30 4.70034 -74.91284 19107 ft 333 kts 61°
2026-05-07 02:31 4.71130 -74.89314 19014 ft 320 kts 62°
2026-05-07 02:31 4.72215 -74.87354 18639 ft 321 kts 61°
2026-05-07 02:31 4.73297 -74.85405 18277 ft 320 kts 61°
2026-05-07 02:31 4.74359 -74.83489 17919 ft 317 kts 61°
2026-05-07 02:32 4.75440 -74.81542 17547 ft 314 kts 61°
2026-05-07 02:32 4.76497 -74.79638 17259 ft 311 kts 61°
2026-05-07 02:32 4.77490 -74.77721 17035 ft 309 kts 68°
2026-05-07 02:32 4.78227 -74.75689 16749 ft 311 kts 70°
2026-05-07 02:33 4.78978 -74.73666 16579 ft 309 kts 69°
2026-05-07 02:33 4.79735 -74.71648 16383 ft 310 kts 69°
2026-05-07 02:33 4.80497 -74.69634 16181 ft 309 kts 69°
2026-05-07 02:33 4.81273 -74.67586 15514 ft 318 kts 69°
2026-05-07 02:34 4.82042 -74.65581 15332 ft 307 kts 69°
2026-05-07 02:34 4.82802 -74.63593 15095 ft 304 kts 69°
2026-05-07 02:34 4.83563 -74.61614 14909 ft 303 kts 69°
2026-05-07 02:34 4.84322 -74.59636 14690 ft 305 kts 69°
2026-05-07 02:35 4.85088 -74.57651 14512 ft 305 kts 69°
2026-05-07 02:35 4.85853 -74.55667 14332 ft 305 kts 69°
2026-05-07 02:35 4.86623 -74.53688 14151 ft 305 kts 69°
2026-05-07 02:35 4.87385 -74.51708 13921 ft 305 kts 69°
2026-05-07 02:36 4.88138 -74.49730 13767 ft 302 kts 69°
2026-05-07 02:36 4.88887 -74.47760 13570 ft 302 kts 69°
2026-05-07 02:36 4.89644 -74.45790 13324 ft 304 kts 69°
2026-05-07 02:36 4.90339 -74.43786 13012 ft 304 kts 79°
2026-05-07 02:37 4.90230 -74.41699 12704 ft 303 kts 107°
2026-05-07 02:37 4.89208 -74.39859 12284 ft 305 kts 131°
2026-05-07 02:37 4.87632 -74.38470 12092 ft 297 kts 140°
2026-05-07 02:37 4.86131 -74.37092 11697 ft 291 kts 127°
2026-05-07 02:38 4.85004 -74.35499 11818 ft 267 kts 125°
2026-05-07 02:38 4.83948 -74.34060 11911 ft 251 kts 126°
2026-05-07 02:38 4.82912 -74.32709 11932 ft 237 kts 126°
2026-05-07 02:38 4.81927 -74.31405 11942 ft 230 kts 126°
2026-05-07 02:39 4.80951 -74.30096 11586 ft 238 kts 126°
2026-05-07 02:39 4.79977 -74.28804 11255 ft 225 kts 126°
2026-05-07 02:39 4.79062 -74.27590 10929 ft 212 kts 126°
2026-05-07 02:39 4.78207 -74.26450 10652 ft 196 kts 126°
2026-05-07 02:40 4.77417 -74.25400 10401 ft 181 kts 126°
2026-05-07 02:40 4.76701 -74.24450 10182 ft 166 kts 126°
2026-05-07 02:40 4.76043 -74.23574 9998 ft 147 kts 126°
2026-05-07 02:40 4.75435 -74.22763 9783 ft 145 kts 126°
2026-05-07 02:41 4.74825 -74.21954 9605 ft 147 kts 127°
2026-05-07 02:41 4.74202 -74.21127 9406 ft 149 kts 126°
2026-05-07 02:41 4.73581 -74.20299 9205 ft 148 kts 127°
2026-05-07 02:41 4.72970 -74.19488 9023 ft 148 kts 126°
2026-05-07 02:42 4.72351 -74.18666 8816 ft 148 kts 126°
2026-05-07 02:42 4.71747 -74.17844 8629 ft 146 kts 126°
2026-05-07 02:42 4.71134 -74.17021 8445 ft 147 kts 127°
2026-05-07 02:42 4.70542 -74.16235 8374 ft 128 kts 127°
2026-05-07 02:43 4.70103 -74.15662 8372 ft 80 kts 127°
2026-05-07 02:43 4.69837 -74.15307 8373 ft 49 kts 127°
2026-05-07 02:43 4.69734 -74.15106 8372 ft 23 kts 107°
2026-05-07 02:43 4.69717 -74.15002 8371 ft 13 kts 94°
2026-05-07 02:44 4.69733 -74.14941 8372 ft 7 kts 50°
2026-05-07 02:44 4.69785 -74.14896 8372 ft 13 kts 39°
2026-05-07 02:44 4.69864 -74.14838 8372 ft 14 kts 38°
2026-05-07 02:44 4.69944 -74.14777 8372 ft 15 kts 37°
2026-05-07 02:45 4.70031 -74.14711 8372 ft 17 kts 37°
2026-05-07 02:45 4.70128 -74.14637 8372 ft 18 kts 37°
2026-05-07 02:45 4.70225 -74.14562 8372 ft 17 kts 38°
2026-05-07 02:45 4.70315 -74.14495 8372 ft 16 kts 37°
2026-05-07 02:46 4.70401 -74.14429 8372 ft 16 kts 37°
2026-05-07 02:46 4.70446 -74.14357 8372 ft 9 kts 115°
2026-05-07 02:46 4.70405 -74.14299 8372 ft 12 kts 126°
2026-05-07 02:46 4.70343 -74.14219 8372 ft 17 kts 127°
2026-05-07 02:47 4.70264 -74.14115 8371 ft 21 kts 127°
2026-05-07 02:47 4.70168 -74.13989 8371 ft 25 kts 127°
2026-05-07 02:47 4.70066 -74.13854 8371 ft 24 kts 127°
2026-05-07 02:47 4.69967 -74.13723 8371 ft 23 kts 127°
2026-05-07 02:48 4.69872 -74.13596 8371 ft 22 kts 127°
2026-05-07 02:48 4.69780 -74.13476 8372 ft 21 kts 127°
2026-05-07 02:48 4.69694 -74.13360 8372 ft 21 kts 127°
2026-05-07 02:48 4.69619 -74.13290 8372 ft 12 kts 164°
2026-05-07 02:49 4.69575 -74.13287 8371 ft 0 kts 186°
2026-05-07 02:49 4.69572 -74.13291 8371 ft 1 kts 222°
2026-05-07 02:49 4.69575 -74.13313 8371 ft 6 kts 289°
2026-05-07 02:49 4.69611 -74.13366 8372 ft 13 kts 305°
2026-05-07 02:50 4.69680 -74.13459 8372 ft 21 kts 306°
2026-05-07 02:50 4.69767 -74.13575 8372 ft 20 kts 307°
2026-05-07 02:50 4.69782 -74.13633 8372 ft 6 kts 230°
2026-05-07 02:50 4.69746 -74.13651 8372 ft 6 kts 175°
2026-05-07 02:51 4.69710 -74.13618 8372 ft 10 kts 126°
2026-05-07 02:51 4.69668 -74.13560 8372 ft 10 kts 127°
2026-05-07 02:51 4.69623 -74.13504 8372 ft 10 kts 130°
2026-05-07 02:51 4.69577 -74.13458 8372 ft 5 kts 160°
2026-05-07 02:52 4.69547 -74.13474 8372 ft 5 kts 217°
2026-05-07 02:52 4.69533 -74.13490 8372 ft 0 kts 253°
2026-05-07 02:52 4.69538 -74.13495 8372 ft 2 kts 304°
2026-05-07 02:52 4.69554 -74.13515 8372 ft 4 kts 307°
2026-05-07 02:53 4.69561 -74.13525 8372 ft 0 kts 307°